SCP
0 0 0 0 0 0 0 0 0 0 0 0 0 -0 -0 -0 -0 -0 -0 -0 -0 -0 -0 -0 -0 0 0 0 -0 0 -0 -0 -0 -0 0 0 0 0 0 0 0 0 0 0 -0 -0 0
0 0 0 0 0 0 0 0 0 0 0 0 0 -0 -0 -0 -0 -0 -0 -0 -0 -0 -0 -0 -0 -0 0 0 0 -0 -0 0 0 0 0 0 0 0 0 0 0 0 0 0 0 0 0
0 0 0 0 0 0 0 0 0 0 0 0 0 -0 -0 -0 -0 -0 -0 -0 -0 -0 0 -0 -0 -0 0 -0 0 -0 0 0 0 0 0 0 0 0 -0 0 0 0 0 0 0 0 0
0 0 0 0 0 0 0 0 0 0 0 0 0 0 -0 -0 -0 -0 -0 -0 -0 0 0 -0 -0 0 0 0 0 0 0 0 0 0 0 0 0 0 0 0 0 0 0 0 0 0 0
0 0 0 0 0 0 0 0 0 0 0 0 0 0 -0 -0 -0 -0 -0 -0 -0 -0 0 0 0 0 -0 0 0 0 0 0 0 0 0 0 0 0 0 0 0 0 0 0 0 0 0
0 0 0 0 0 0 0 0 0 0 0 0 0 0 0 -0 -0 -0 -0 0 0 -0 0 0 -0 0 -0 0 0 0 0 0 0 0 0 0 0 0 0 0 0 0 0 0 0 0 0
0 0 0 0 0 0 0 0 0 0 0 0 0 0 0 0 -0 -0 0 0 0 0 0 -0 -0 -0 -0 0 0 0 0 0 0 0 0 0 0 0 0 0 0 0 0 0 0 0 0
0 0 0 0 0 0 0 0 0 0 0 0 0 0 0 0 0 0 0 0 0 0 0 -0 -0 0 -0 -0 0 0 0 0 0 0 0 0 0 0 0 0 0 0 0 0 0 0 0
0 0 0 0 0 0 0 0 0 0 0 0 0 0 0 0 0 0 0 0 0 0 0 0 0 0 -0 -0 0 0 0 0 0 0 0 0 0 0 0 0 0 0 0 0 0 0 0
0 0 0 0 0 0 0 0 0 0 0 0 0 0 0 0 0 0 0 0 0 0 0 0 0 0 0 0 -0 0 0 0 0 0 0 0 0 0 0 0 0 0 0 0 0 0 0
0 0 0 0 0 0 0 0 0 0 0 0 0 0 0 0 0 0 0 0 0 0 0 0 0 0 0 0 0 0 0 0 0 0 0 0 0 0 0 0 0 0 0 0 0 0 0
0 0 0 0 0 0 0 0 0 0 0 0 0 0 0 0 0 0 0 0 0 0 0 0 0 0 0 0 0 0 0 0 0 0 0 0 0 0 0 0 0 0 0 0 0 0 0
0 0 0 0 0 0 0 0 0 0 0 0 0 0 0 0 0 0 0 0 0 0 0 0 0 0 0 0 0 0 0 0 0 0 0 0 0 0 0 0 0 0 0 0 0 0 0
0 0 0 0 0 0 0 0 0 0 0 0 0 0 0 0 0 0 0 0 0 0 0 0 0 0 0 0 0 0 0 0 0 0 0 0 0 0 0 0 0 0 0 0 0 0 0
0 0 0 0 0 0 0 -0 0 0 0 0 0 0 0 0 0 0 0 0 0 0 0 0 0 0 0 0 0 0 0 0 0 0 0 0 0 0 0 0 0 0 0 0 0 0 0
0 0 0 0 0 0 0 0 0 0 0 0 0 0 0 0 0 0 0 0 0 0 0 0 0 0 0 0 0 0 0 0 0 0 0 0 0 0 0 0 0 0 0 0 0 0 0
0 0 0 0 0 0 0 0 0 0 0 0 0 0 0 0 0 0 0 0 0 0 0 0 0 0 0 0 0 0 0 0 0 0 0 0 0 0 0 0 0 0 0 0 0 0 0
0 0 0 0 0 0 0 0 0 0 0 0 0 0 0 0 0 0 0 0 0 0 0 0 0 0 0 0 0 0 0 0 0 0 0 0 0 0 0 0 0 0 0 0 0 0 0
0 0 0 0 0 0 0 0 0 0 0 0 0 0 0 0 0 0 0 0 0 0 0 0 0 0 0 0 0 0 0 0 0 0 0 0 0 0 0 0 0 0 0 0 0 0 0
0 0 0 0 0 0 0 0 0 0 0 0 0 0 0 0 0 0 0 0 0 0 0 0 0 0 0 0 0 0 0 0 0 0 0 0 0 0 0 0 0 0 0 0 0 0 0
0 0 0 0 0 0 0 0 0 0 0 0 0 0 0 0 0 0 0 0 0 0 0 0 0 0 0 0 0 0 0 0 0 0 0 0 0 0 0 0 0 0 0 0 0 0 0
0 0 0 0 0 0 0 0 0 0 0 0 0 0 0 0 0 0 0 0 0 0 0 0 0 0 0 0 0 0 0 0 0 0 0 0 0 0 0 0 0 0 0 0 0 0 0
0 0 0 0 0 0 0 0 0 0 0 -0 0 0 0 0 0 0 0 0 0 0 0 0 0 0 0 0 0 0 0 0 0 0 0 0 0 0 0 0 0 0 0 0 0 0 0
0 0 0 0 0 0 0 0 0 0 0 0 0 0 0 0 0 0 0 0 0 0 0 0 0 0 0 0 0 0 0 0 0 0 0 0 0 0 0 0 0 0 0 0 0 0 0
0 0 0 0 0 0 0 0 0 0 0 0 0 0 0 0 0 0 0 0 0 0 0 0 0 0 0 0 0 0 0 0 0 0 0 0 0 0 0 0 0 0 0 0 0 0 0
0 0 0 0 0 0 0 0 0 0 0 0 0 0 0 0 0 0 0 0 0 0 0 0 0 0 0 0 0 0 0 0 0 0 0 0 0 0 0 0 0 0 0 0 0 0 0
0 0 0 0 0 0 0 0 0 0 0 0 0 0 0 0 0 0 0 0 0 0 0 0 0 0 0 0 0 0 0 0 0 0 0 0 0 0 0 0 0 0 0 0 0 0 0
0 0 0 0 0 0 0 0 0 0 0 0 0 0 0 0 0 0 0 0 0 0 0 0 0 0 0 0 0 0 0 0 0 0 0 0 0 0 0 0 0 0 0 0 0 0 0
0 0 0 0 0 0 0 0 0 0 0 0 0 0 0 0 0 0 0 0 0 0 0 0 0 0 0 0 0 0 0 0 0 0 0 0 0 0 0 0 0 0 0 0 0 0 0
Wind_Speed_500mb
23 22 17 13 13 14 15 13 13 15 17 16 19 23 21 23 25 24 20 20 19 13 11 6 6 3 0 2 5 4 6 8 14 15 14 17 18 14 5 10 20 6 8 20 30 33 29
24 20 20 17 12 13 15 17 16 15 19 17 18 22 24 25 27 25 22 21 19 13 10 9 10 10 5 3 7 2 6 9 13 11 7 14 6 11 14 12 5 11 18 28 32 42 14
26 22 17 17 18 14 13 14 19 20 18 20 20 21 23 26 29 25 26 23 15 8 9 12 10 8 9 7 11 5 7 10 14 17 10 5 11 6 15 10 15 18 13 17 26 15 7
29 24 19 18 16 18 18 17 16 20 23 22 22 25 24 26 27 25 24 16 7 6 13 15 11 6 6 8 9 5 6 15 13 15 19 12 9 10 8 14 13 6 4 9 11 12 10
29 28 26 21 21 19 21 22 22 19 20 24 23 24 26 28 26 23 19 5 4 8 9 12 8 6 8 13 16 13 11 4 14 11 14 15 13 4 7 2 9 10 7 14 13 12 6
32 30 28 27 25 25 23 25 24 26 22 19 22 25 25 27 26 22 10 3 3 7 11 9 11 8 14 5 13 13 9 11 7 6 14 14 8 2 8 9 3 11 11 11 13 7 6
36 37 33 32 29 29 29 28 28 25 29 24 20 21 24 25 26 19 4 1 7 4 20 15 9 7 14 7 10 7 14 14 25 12 7 12 6 2 2 3 12 11 8 12 9 3 3
34 41 41 35 36 32 33 32 31 30 27 28 25 20 23 21 23 15 8 4 12 8 13 34 21 20 12 5 4 13 15 6 3 9 14 10 5 8 6 11 7 8 9 10 12 16 4
41 31 38 40 41 41 36 36 35 33 30 27 26 24 20 21 17 10 14 16 21 17 7 13 38 26 16 9 5 16 5 6 8 8 5 7 5 4 5 9 10 6 5 5 8 16 7
45 46 40 32 41 40 40 40 38 36 35 29 26 24 23 18 13 6 12 14 12 9 4 8 13 12 20 9 4 12 4 1 6 9 2 6 6 1 7 3 6 7 6 5 12 11 3
51 47 55 49 38 38 43 42 43 40 37 34 29 24 23 19 12 10 12 21 7 6 3 11 13 18 19 13 11 6 5 8 5 7 10 10 3 3 5 4 4 14 14 17 8 5 6
53 53 52 47 53 51 37 44 39 44 41 36 32 28 25 23 19 16 13 6 14 8 12 12 13 13 10 13 8 17 9 9 8 3 5 13 4 6 5 11 6 15 11 11 7 4 4
49 55 57 56 52 51 55 46 39 42 46 41 36 32 32 28 16 12 11 13 7 7 4 11 10 14 14 11 9 11 8 6 5 5 2 2 6 4 3 6 11 19 12 8 9 8 8
60 53 54 61 58 61 53 56 52 41 39 45 41 39 36 41 28 21 12 5 9 14 14 8 12 15 13 11 7 13 5 6 3 3 3 6 7 10 3 5 3 5 8 9 8 1 9
61 64 61 59 60 51 42 58 59 56 42 39 47 46 47 44 34 25 17 6 16 14 12 17 11 7 9 4 8 8 12 10 7 5 6 4 3 1 3 3 6 6 7 8 8 4 5
70 63 65 60 59 61 55 44 47 52 56 46 53 46 60 37 35 38 7 18 13 9 14 6 18 14 16 15 11 14 14 4 10 5 5 4 1 8 4 0 5 6 9 4 5 4 6
68 71 68 65 59 59 64 56 44 46 55 61 54 21 45 44 43 38 14 15 22 35 9 13 16 12 12 16 17 11 12 3 9 10 2 4 7 8 7 7 8 1 1 2 6 9 6
70 68 72 67 66 64 64 60 53 41 41 49 48 9 24 61 26 16 19 14 38 19 16 5 6 9 14 16 15 13 12 7 18 21 8 4 8 4 4 5 4 3 4 6 8 7 4
71 69 68 69 70 69 64 63 55 48 44 44 18 24 46 80 22 20 10 28 28 11 14 13 14 8 6 14 10 10 10 7 25 8 12 9 4 3 10 9 6 2 7 7 5 5 7
72 68 73 70 68 63 61 60 54 47 44 45 29 5 17 53 39 25 27 29 40 28 14 15 12 8 10 9 8 13 8 7 14 8 13 7 5 10 12 9 6 6 9 10 11 5 5
68 68 63 59 60 60 56 55 56 52 47 36 21 13 29 18 31 29 8 19 31 28 20 36 11 14 17 10 7 11 8 6 4 12 9 9 8 8 11 14 9 9 12 13 14 13 8
63 62 59 57 55 53 54 54 53 49 50 49 22 13 33 36 53 39 29 12 42 30 26 20 12 20 17 17 18 19 17 12 11 7 13 5 5 3 8 12 14 14 17 19 15 13 14
61 57 54 52 54 55 54 52 48 45 49 29 23 37 18 30 19 32 46 42 29 19 25 48 22 19 21 14 33 30 35 37 28 19 15 14 7 4 8 10 8 12 16 20 13 10 17
56 54 53 52 50 49 48 52 56 48 52 48 40 28 21 13 26 31 31 55 52 31 20 23 50 24 23 45 53 43 38 28 27 13 22 13 9 6 6 7 5 12 3 11 18 17 16
53 51 51 50 48 48 48 47 50 55 52 57 50 35 11 5 36 42 31 33 55 65 13 32 37 51 72 42 9 10 8 6 1 4 9 7 8 5 7 5 11 3 8 10 11 13 17
52 51 48 46 46 47 48 46 45 44 49 51 56 49 27 4 22 75 41 30 28 30 19 9 33 59 65 8 7 13 12 13 13 5 9 8 9 7 5 7 14 10 7 16 10 9 13
48 47 46 46 43 45 43 43 43 46 47 50 50 54 46 14 44 28 34 25 33 33 14 11 19 27 46 7 7 9 10 18 16 23 13 8 3 12 6 8 14 15 18 19 8 13 15
45 45 44 44 43 43 44 42 40 46 53 48 61 55 43 16 39 34 60 38 19 53 24 20 15 6 6 11 10 10 8 12 11 16 16 17 16 9 7 5 16 30 16 16 14 19 25
42 42 42 41 42 41 41 41 43 45 51 48 57 56 48 47 25 23 47 68 54 17 40 53 18 17 23 8 6 7 4 7 14 10 9 10 16 16 20 16 11 68 14 41 35 33 30
Wind_Direction_500mb
340 332 320 317 314 309 309 306 305 315 319 324 321 319 328 333 331 326 322 312 302 291 264 225 208 208 354 289 215 132 39 32 29 33 16 3 23 13 4 297 330 248 279 307 306 295 281
342 336 328 319 308 309 312 310 310 312 310 315 321 322 329 335 332 333 317 316 304 278 249 214 211 235 264 266 209 122 4 14 2 2 10 14 342 320 288 279 277 273 307 288 283 278 272
337 333 328 321 313 302 295 305 309 307 304 307 318 323 328 332 335 329 322 323 298 255 216 200 205 232 247 261 191 313 347 7 343 350 331 321 307 317 327 303 284 293 314 318 266 236 159
328 324 320 315 309 304 301 295 300 308 311 311 318 320 325 329 339 326 327 315 278 203 182 185 198 252 275 197 203 248 330 317 302 333 333 335 335 298 240 289 309 320 56 314 290 160 187
320 319 315 307 304 298 300 300 296 295 304 310 313 315 320 331 338 332 329 299 179 171 167 177 193 259 268 191 212 194 287 263 283 284 312 328 300 269 307 270 3 24 283 321 327 61 146
304 306 307 303 296 297 294 297 297 296 293 298 308 311 317 328 336 337 335 239 177 180 187 205 208 280 210 147 194 260 250 305 328 271 258 262 214 39 12 60 288 285 310 295 292 244 43
292 300 296 298 294 291 292 291 294 294 296 294 298 304 312 323 332 333 329 88 289 237 209 205 248 198 151 224 281 226 195 288 251 258 229 208 91 243 242 252 244 267 266 298 311 261 39
273 277 288 291 295 289 287 286 288 289 290 296 293 298 303 314 324 309 310 274 298 287 298 232 236 241 237 229 271 225 202 285 355 259 311 10 227 200 234 283 302 1 36 324 305 317 203
279 284 270 272 286 289 285 283 284 285 285 285 290 291 297 304 315 294 318 291 291 271 262 231 227 214 219 207 245 136 201 275 241 263 319 167 227 230 345 356 4 2 131 316 275 313 295
281 280 280 276 266 276 283 280 279 279 283 280 279 284 288 294 290 262 285 306 308 191 35 231 188 217 206 205 290 189 232 293 308 237 23 253 202 69 346 261 58 317 247 321 300 6 263
283 281 282 282 276 265 272 275 275 273 273 276 275 274 276 281 270 269 278 312 194 146 327 168 157 162 167 167 157 212 226 190 233 292 77 261 95 10 291 243 331 247 276 270 218 246 357
291 287 279 282 278 274 266 260 269 272 270 268 267 266 265 260 257 259 281 271 150 58 250 182 142 171 142 207 198 165 199 210 257 310 211 222 152 173 234 289 234 268 335 24 79 94 16
303 295 284 277 278 278 277 267 260 268 265 265 262 258 252 243 230 246 273 162 73 177 181 184 180 161 191 182 187 167 184 183 135 50 320 108 194 182 217 343 335 24 37 356 16 14 229
306 297 296 284 281 276 282 277 275 257 255 261 260 253 246 241 227 224 213 72 190 220 196 180 137 145 176 146 213 174 185 171 211 134 244 147 266 171 302 137 231 294 109 140 186 301 275
298 299 297 292 276 281 280 279 275 267 262 259 256 253 247 233 222 204 205 182 203 213 168 143 102 143 210 144 145 153 207 150 155 109 174 65 273 313 161 168 120 327 64 156 113 318 34
295 291 293 290 287 269 264 280 275 270 261 256 243 251 248 219 219 204 184 226 223 237 129 111 166 165 177 176 157 173 173 173 141 122 99 205 337 209 195 75 284 116 169 87 19 46 329
288 287 289 286 284 276 265 268 279 269 257 270 226 221 245 220 189 192 214 215 236 254 276 154 198 170 175 168 177 192 183 282 136 163 152 190 111 302 80 202 192 74 4 222 136 135 177
283 282 282 281 280 278 263 264 265 274 264 257 202 207 205 184 173 200 213 206 228 244 194 193 138 168 164 157 174 185 167 158 153 151 170 218 143 222 250 328 29 112 147 124 117 266 227
279 280 280 278 274 274 265 257 260 258 265 232 188 236 183 180 200 214 201 222 238 221 183 183 210 189 134 152 154 160 115 141 142 134 166 178 221 65 348 343 344 257 210 156 133 93 232
279 276 275 273 271 268 262 254 254 252 254 248 199 184 243 206 220 205 201 208 218 225 206 172 187 137 108 139 86 167 123 176 161 119 139 108 215 183 186 187 185 213 190 185 147 136 260
279 279 275 276 269 267 259 253 248 245 251 259 201 196 183 210 221 224 231 212 208 210 207 185 218 166 152 144 103 144 116 103 116 148 152 128 213 219 247 240 225 217 231 218 200 200 185
279 277 276 273 269 265 256 251 245 242 245 249 192 183 206 239 212 195 219 245 211 200 167 198 156 172 169 161 178 183 136 169 186 176 161 177 246 272 288 263 222 244 234 225 219 215 238
277 275 274 271 269 267 259 246 244 237 241 248 251 211 169 226 226 191 209 213 233 208 209 189 163 167 199 195 163 192 161 168 160 146 180 155 172 113 260 21 322 298 224 199 197 201 196
275 273 270 269 267 268 265 254 241 239 239 240 247 246 205 206 226 228 209 210 224 235 195 184 177 163 173 138 114 105 83 111 143 162 156 157 155 128 242 2 240 248 85 161 203 212 206
273 271 269 267 263 262 258 259 243 239 238 241 240 237 259 231 212 239 232 202 212 233 231 187 185 187 159 136 96 86 16 49 208 64 133 111 135 154 152 209 286 285 214 189 179 248 193
273 270 267 265 262 261 258 257 252 243 238 236 239 241 240 286 210 217 236 239 201 211 212 197 183 179 160 118 122 157 175 174 189 133 13 87 88 125 152 169 215 235 184 135 87 281 204
272 268 266 263 262 261 260 255 251 247 242 237 239 231 228 215 254 260 226 243 210 201 187 137 155 163 167 134 149 162 203 157 162 165 164 136 124 176 203 227 282 234 165 130 119 240 170
273 267 267 264 260 259 257 255 251 239 239 233 234 232 225 230 257 248 224 220 265 192 186 179 124 199 103 156 158 200 152 199 132 159 171 158 149 179 167 187 269 157 121 165 207 159 175
272 267 267 266 259 258 254 252 250 244 236 229 237 230 230 232 245 279 242 219 226 263 215 177 189 154 159 142 192 141 162 137 147 199 170 177 182 174 179 205 222 174 184 193 176 169 181
Wind_Speed_850mb
23 22 17 13 13 14 15 13 13 15 17 16 19 23 21 23 25 24 20 20 19 13 11 6 6 3 0 2 5 4 6 8 14 15 14 17 18 14 5 10 20 6 8 20 30 33 29
24 20 20 17 12 13 15 17 16 15 19 17 18 22 24 25 27 25 22 21 19 13 10 9 10 10 5 3 7 2 6 9 13 11 7 14 6 11 14 12 5 11 18 28 32 42 14
26 22 17 17 18 14 13 14 19 20 18 20 20 21 23 26 29 25 26 23 15 8 9 12 10 8 9 7 11 5 7 10 14 17 10 5 11 6 15 10 15 18 13 17 26 15 7
29 24 19 18 16 18 18 17 16 20 23 22 22 25 24 26 27 25 24 16 7 6 13 15 11 6 6 8 9 5 6 15 13 15 19 12 9 10 8 14 13 6 4 9 11 12 10
29 28 26 21 21 19 21 22 22 19 20 24 23 24 26 28 26 23 19 5 4 8 9 12 8 6 8 13 16 13 11 4 14 11 14 15 13 4 7 2 9 10 7 14 13 12 6
32 30 28 27 25 25 23 25 24 26 22 19 22 25 25 27 26 22 10 3 3 7 11 9 11 8 14 5 13 13 9 11 7 6 14 14 8 2 8 9 3 11 11 11 13 7 6
36 37 33 32 29 29 29 28 28 25 29 24 20 21 24 25 26 19 4 1 7 4 20 15 9 7 14 7 10 7 14 14 25 12 7 12 6 2 2 3 12 11 8 12 9 3 3
34 41 41 35 36 32 33 32 31 30 27 28 25 20 23 21 23 15 8 4 12 8 13 34 21 20 12 5 4 13 15 6 3 9 14 10 5 8 6 11 7 8 9 10 12 16 4
41 31 38 40 41 41 36 36 35 33 30 27 26 24 20 21 17 10 14 16 21 17 7 13 38 26 16 9 5 16 5 6 8 8 5 7 5 4 5 9 10 6 5 5 8 16 7
45 46 40 32 41 40 40 40 38 36 35 29 26 24 23 18 13 6 12 14 12 9 4 8 13 12 20 9 4 12 4 1 6 9 2 6 6 1 7 3 6 7 6 5 12 11 3
51 47 55 49 38 38 43 42 43 40 37 34 29 24 23 19 12 10 12 21 7 6 3 11 13 18 19 13 11 6 5 8 5 7 10 10 3 3 5 4 4 14 14 17 8 5 6
53 53 52 47 53 51 37 44 39 44 41 36 32 28 25 23 19 16 13 6 14 8 12 12 13 13 10 13 8 17 9 9 8 3 5 13 4 6 5 11 6 15 11 11 7 4 4
49 55 57 56 52 51 55 46 39 42 46 41 36 32 32 28 16 12 11 13 7 7 4 11 10 14 14 11 9 11 8 6 5 5 2 2 6 4 3 6 11 19 12 8 9 8 8
60 53 54 61 58 61 53 56 52 41 39 45 41 39 36 41 28 21 12 5 9 14 14 8 12 15 13 11 7 13 5 6 3 3 3 6 7 10 3 5 3 5 8 9 8 1 9
61 64 61 59 60 51 42 58 59 56 42 39 47 46 47 44 34 25 17 6 16 14 12 17 11 7 9 4 8 8 12 10 7 5 6 4 3 1 3 3 6 6 7 8 8 4 5
70 63 65 60 59 61 55 44 47 52 56 46 53 46 60 37 35 38 7 18 13 9 14 6 18 14 16 15 11 14 14 4 10 5 5 4 1 8 4 0 5 6 9 4 5 4 6
68 71 68 65 59 59 64 56 44 46 55 61 54 21 45 44 43 38 14 15 22 35 9 13 16 12 12 16 17 11 12 3 9 10 2 4 7 8 7 7 8 1 1 2 6 9 6
70 68 72 67 66 64 64 60 53 41 41 49 48 9 24 61 26 16 19 14 38 19 16 5 6 9 14 16 15 13 12 7 18 21 8 4 8 4 4 5 4 3 4 6 8 7 4
71 69 68 69 70 69 64 63 55 48 44 44 18 24 46 80 22 20 10 28 28 11 14 13 14 8 6 14 10 10 10 7 25 8 12 9 4 3 10 9 6 2 7 7 5 5 7
72 68 73 70 68 63 61 60 54 47 44 45 29 5 17 53 39 25 27 29 40 28 14 15 12 8 10 9 8 13 8 7 14 8 13 7 5 10 12 9 6 6 9 10 11 5 5
68 68 63 59 60 60 56 55 56 52 47 36 21 13 29 18 31 29 8 19 31 28 20 36 11 14 17 10 7 11 8 6 4 12 9 9 8 8 11 14 9 9 12 13 14 13 8
63 62 59 57 55 53 54 54 53 49 50 49 22 13 33 36 53 39 29 12 42 30 26 20 12 20 17 17 18 19 17 12 11 7 13 5 5 3 8 12 14 14 17 19 15 13 14
61 57 54 52 54 55 54 52 48 45 49 29 23 37 18 30 19 32 46 42 29 19 25 48 22 19 21 14 33 30 35 37 28 19 15 14 7 4 8 10 8 12 16 20 13 10 17
56 54 53 52 50 49 48 52 56 48 52 48 40 28 21 13 26 31 31 55 52 31 20 23 50 24 23 45 53 43 38 28 27 13 22 13 9 6 6 7 5 12 3 11 18 17 16
53 51 51 50 48 48 48 47 50 55 52 57 50 35 11 5 36 42 31 33 55 65 13 32 37 51 72 42 9 10 8 6 1 4 9 7 8 5 7 5 11 3 8 10 11 13 17
52 51 48 46 46 47 48 46 45 44 49 51 56 49 27 4 22 75 41 30 28 30 19 9 33 59 65 8 7 13 12 13 13 5 9 8 9 7 5 7 14 10 7 16 10 9 13
48 47 46 46 43 45 43 43 43 46 47 50 50 54 46 14 44 28 34 25 33 33 14 11 19 27 46 7 7 9 10 18 16 23 13 8 3 12 6 8 14 15 18 19 8 13 15
45 45 44 44 43 43 44 42 40 46 53 48 61 55 43 16 39 34 60 38 19 53 24 20 15 6 6 11 10 10 8 12 11 16 16 17 16 9 7 5 16 30 16 16 14 19 25
42 42 42 41 42 41 41 41 43 45 51 48 57 56 48 47 25 23 47 68 54 17 40 53 18 17 23 8 6 7 4 7 14 10 9 10 16 16 20 16 11 68 14 41 35 33 30
Wind_Direction_850mb
340 332 320 317 314 309 309 306 305 315 319 324 321 319 328 333 331 326 322 312 302 291 264 225 208 208 354 289 215 132 39 32 29 33 16 3 23 13 4 297 330 248 279 307 306 295 281
342 336 328 319 308 309 312 310 310 312 310 315 321 322 329 335 332 333 317 316 304 278 249 214 211 235 264 266 209 122 4 14 2 2 10 14 342 320 288 279 277 273 307 288 283 278 272
337 333 328 321 313 302 295 305 309 307 304 307 318 323 328 332 335 329 322 323 298 255 216 200 205 232 247 261 191 313 347 7 343 350 331 321 307 317 327 303 284 293 314 318 266 236 159
328 324 320 315 309 304 301 295 300 308 311 311 318 320 325 329 339 326 327 315 278 203 182 185 198 252 275 197 203 248 330 317 302 333 333 335 335 298 240 289 309 320 56 314 290 160 187
320 319 315 307 304 298 300 300 296 295 304 310 313 315 320 331 338 332 329 299 179 171 167 177 193 259 268 191 212 194 287 263 283 284 312 328 300 269 307 270 3 24 283 321 327 61 146
304 306 307 303 296 297 294 297 297 296 293 298 308 311 317 328 336 337 335 239 177 180 187 205 208 280 210 147 194 260 250 305 328 271 258 262 214 39 12 60 288 285 310 295 292 244 43
292 300 296 298 294 291 292 291 294 294 296 294 298 304 312 323 332 333 329 88 289 237 209 205 248 198 151 224 281 226 195 288 251 258 229 208 91 243 242 252 244 267 266 298 311 261 39
273 277 288 291 295 289 287 286 288 289 290 296 293 298 303 314 324 309 310 274 298 287 298 232 236 241 237 229 271 225 202 285 355 259 311 10 227 200 234 283 302 1 36 324 305 317 203
279 284 270 272 286 289 285 283 284 285 285 285 290 291 297 304 315 294 318 291 291 271 262 231 227 214 219 207 245 136 201 275 241 263 319 167 227 230 345 356 4 2 131 316 275 313 295
281 280 280 276 266 276 283 280 279 279 283 280 279 284 288 294 290 262 285 306 308 191 35 231 188 217 206 205 290 189 232 293 308 237 23 253 202 69 346 261 58 317 247 321 300 6 263
283 281 282 282 276 265 272 275 275 273 273 276 275 274 276 281 270 269 278 312 194 146 327 168 157 162 167 167 157 212 226 190 233 292 77 261 95 10 291 243 331 247 276 270 218 246 357
291 287 279 282 278 274 266 260 269 272 270 268 267 266 265 260 257 259 281 271 150 58 250 182 142 171 142 207 198 165 199 210 257 310 211 222 152 173 234 289 234 268 335 24 79 94 16
303 295 284 277 278 278 277 267 260 268 265 265 262 258 252 243 230 246 273 162 73 177 181 184 180 161 191 182 187 167 184 183 135 50 320 108 194 182 217 343 335 24 37 356 16 14 229
306 297 296 284 281 276 282 277 275 257 255 261 260 253 246 241 227 224 213 72 190 220 196 180 137 145 176 146 213 174 185 171 211 134 244 147 266 171 302 137 231 294 109 140 186 301 275
298 299 297 292 276 281 280 279 275 267 262 259 256 253 247 233 222 204 205 182 203 213 168 143 102 143 210 144 145 153 207 150 155 109 174 65 273 313 161 168 120 327 64 156 113 318 34
295 291 293 290 287 269 264 280 275 270 261 256 243 251 248 219 219 204 184 226 223 237 129 111 166 165 177 176 157 173 173 173 141 122 99 205 337 209 195 75 284 116 169 87 19 46 329
288 287 289 286 284 276 265 268 279 269 257 270 226 221 245 220 189 192 214 215 236 254 276 154 198 170 175 168 177 192 183 282 136 163 152 190 111 302 80 202 192 74 4 222 136 135 177
283 282 282 281 280 278 263 264 265 274 264 257 202 207 205 184 173 200 213 206 228 244 194 193 138 168 164 157 174 185 167 158 153 151 170 218 143 222 250 328 29 112 147 124 117 266 227
279 280 280 278 274 274 265 257 260 258 265 232 188 236 183 180 200 214 201 222 238 221 183 183 210 189 134 152 154 160 115 141 142 134 166 178 221 65 348 343 344 257 210 156 133 93 232
279 276 275 273 271 268 262 254 254 252 254 248 199 184 243 206 220 205 201 208 218 225 206 172 187 137 108 139 86 167 123 176 161 119 139 108 215 183 186 187 185 213 190 185 147 136 260
279 279 275 276 269 267 259 253 248 245 251 259 201 196 183 210 221 224 231 212 208 210 207 185 218 166 152 144 103 144 116 103 116 148 152 128 213 219 247 240 225 217 231 218 200 200 185
279 277 276 273 269 265 256 251 245 242 245 249 192 183 206 239 212 195 219 245 211 200 167 198 156 172 169 161 178 183 136 169 186 176 161 177 246 272 288 263 222 244 234 225 219 215 238
277 275 274 271 269 267 259 246 244 237 241 248 251 211 169 226 226 191 209 213 233 208 209 189 163 167 199 195 163 192 161 168 160 146 180 155 172 113 260 21 322 298 224 199 197 201 196
275 273 270 269 267 268 265 254 241 239 239 240 247 246 205 206 226 228 209 210 224 235 195 184 177 163 173 138 114 105 83 111 143 162 156 157 155 128 242 2 240 248 85 161 203 212 206
273 271 269 267 263 262 258 259 243 239 238 241 240 237 259 231 212 239 232 202 212 233 231 187 185 187 159 136 96 86 16 49 208 64 133 111 135 154 152 209 286 285 214 189 179 248 193
273 270 267 265 262 261 258 257 252 243 238 236 239 241 240 286 210 217 236 239 201 211 212 197 183 179 160 118 122 157 175 174 189 133 13 87 88 125 152 169 215 235 184 135 87 281 204
272 268 266 263 262 261 260 255 251 247 242 237 239 231 228 215 254 260 226 243 210 201 187 137 155 163 167 134 149 162 203 157 162 165 164 136 124 176 203 227 282 234 165 130 119 240 170
273 267 267 264 260 259 257 255 251 239 239 233 234 232 225 230 257 248 224 220 265 192 186 179 124 199 103 156 158 200 152 199 132 159 171 158 149 179 167 187 269 157 121 165 207 159 175
272 267 267 266 259 258 254 252 250 244 236 229 237 230 230 232 245 279 242 219 226 263 215 177 189 154 159 142 192 141 162 137 147 199 170 177 182 174 179 205 222 174 184 193 176 169 181